Location: 10033 Water Well
(34.0865°N, 106.8959°W)
Time: 21:44:39
(UTC+00:00)

Cosmos 1339 Rocket - Pass Details

Date: 13 January 2026
Orbit: 940 x 1006 km, 82.9° (Epoch: 10 February)

Event Time Altitude Azimuth Distance (km) Brightness Sun altitude
Rises 02:10:08 0° 182° (S) 3,676 7.7 -22.7°
Reaches altitude 10° 02:12:39 10° 182° (S) 2,722 7.0 -23.2°
Maximum altitude 02:18:53 85° 95° (E) 977 4.3 -24.4°
Enters shadow 02:24:12 15° 8° (N) 2,369 6.3 -25.5°
